TimeCDT,TemperatureF,Dew PointF,Humidity,Sea Level PressureIn,VisibilityMPH,Wind Direction,Wind SpeedMPH,Gust SpeedMPH,PrecipitationIn,Events,Conditions,WindDirDegrees,DateUTC
12:15 AM,36.7,36.7,100,30.06,7.0,Calm,Calm,-,N/A,,Clear,0,2013-03-15 05:15:00
12:35 AM,35.4,35.4,100,30.06,7.0,Calm,Calm,-,N/A,,Clear,0,2013-03-15 05:35:00
12:55 AM,35.2,35.2,100,30.06,7.0,Calm,Calm,-,N/A,,Clear,0,2013-03-15 05:55:00
1:15 AM,35.2,35.2,100,30.04,7.0,Calm,Calm,-,N/A,,Clear,0,2013-03-15 06:15:00
1:35 AM,35.2,35.2,100,30.03,5.0,Calm,Calm,-,N/A,,Clear,0,2013-03-15 06:35:00
1:55 AM,34.0,34.0,100,30.02,5.0,Calm,Calm,-,N/A,,Clear,0,2013-03-15 06:55:00
2:15 AM,33.3,33.3,100,30.02,4.0,Calm,Calm,-,N/A,,Clear,0,2013-03-15 07:15:00
2:35 AM,33.3,33.3,100,30.01,5.0,Calm,Calm,-,N/A,,Clear,0,2013-03-15 07:35:00
2:55 AM,33.8,33.8,100,29.99,4.0,Calm,Calm,-,N/A,,Clear,0,2013-03-15 07:55:00
3:15 AM,33.1,33.1,100,29.98,5.0,Calm,Calm,-,N/A,,Clear,0,2013-03-15 08:15:00
3:35 AM,33.8,33.8,100,29.97,5.0,Calm,Calm,-,N/A,,Clear,0,2013-03-15 08:35:00
3:55 AM,32.9,32.9,100,29.96,5.0,Calm,Calm,-,N/A,,Clear,0,2013-03-15 08:55:00
4:15 AM,32.9,32.9,100,29.95,4.0,Calm,Calm,-,N/A,,Clear,0,2013-03-15 09:15:00
4:35 AM,32.0,32.0,100,29.93,2.5,Calm,Calm,-,N/A,,Clear,0,2013-03-15 09:35:00
4:55 AM,33.8,33.8,100,29.91,5.0,SE,4.6,-,N/A,,Clear,140,2013-03-15 09:55:00
5:15 AM,34.5,34.5,100,29.91,5.0,SE,5.8,-,N/A,,Clear,140,2013-03-15 10:15:00
5:35 AM,34.2,34.2,100,29.91,5.0,SE,3.5,-,N/A,,Clear,140,2013-03-15 10:35:00
5:55 AM,34.2,34.2,100,29.90,5.0,SE,3.5,-,N/A,,Clear,140,2013-03-15 10:55:00
6:15 AM,34.3,34.3,100,29.89,5.0,SSE,3.5,-,N/A,,Clear,150,2013-03-15 11:15:00
6:35 AM,35.1,35.1,100,29.88,5.0,Calm,Calm,-,N/A,,Clear,0,2013-03-15 11:35:00
6:55 AM,33.6,33.6,100,29.87,3.0,Calm,Calm,-,N/A,,Clear,0,2013-03-15 11:55:00
7:15 AM,33.1,33.1,100,29.86,1.8,Calm,Calm,-,N/A,,Mist,0,2013-03-15 12:15:00
7:35 AM,35.1,35.1,100,29.86,5.0,ESE,3.5,-,N/A,,Clear,120,2013-03-15 12:35:00
7:55 AM,35.2,35.2,100,29.85,5.0,SE,3.5,-,N/A,,Clear,130,2013-03-15 12:55:00
8:15 AM,35.6,35.6,100,29.84,5.0,SE,5.8,-,N/A,,Clear,130,2013-03-15 13:15:00
8:35 AM,36.0,36.0,100,29.83,4.0,SE,4.6,-,N/A,,Clear,140,2013-03-15 13:35:00
8:55 AM,37.4,37.4,100,29.82,5.0,SE,4.6,-,N/A,,Clear,140,2013-03-15 13:55:00
9:15 AM,37.4,37.4,100,29.81,5.0,SE,6.9,-,N/A,,Clear,130,2013-03-15 14:15:00
9:35 AM,39.9,39.9,100,29.80,7.0,SE,5.8,-,N/A,,Clear,130,2013-03-15 14:35:00
10:55 AM,51.8,44.2,75,29.78,10.0,West,4.6,-,N/A,,Clear,270,2013-03-15 15:55:00
11:15 AM,54.7,44.1,67,29.78,10.0,West,10.4,-,N/A,,Clear,270,2013-03-15 16:15:00
11:35 AM,55.6,43.9,65,29.78,10.0,WNW,8.1,-,N/A,,Clear,290,2013-03-15 16:35:00
11:55 AM,56.7,44.2,63,29.76,10.0,WNW,6.9,-,N/A,,Clear,290,2013-03-15 16:55:00
12:15 PM,57.4,44.1,61,29.77,10.0,WNW,9.2,-,N/A,,Clear,300,2013-03-15 17:15:00
12:35 PM,57.7,44.8,62,29.76,10.0,NW,9.2,-,N/A,,Clear,310,2013-03-15 17:35:00
12:55 PM,57.7,45.0,62,29.76,10.0,WNW,8.1,-,N/A,,Clear,300,2013-03-15 17:55:00
1:15 PM,58.1,45.5,63,29.76,10.0,NW,5.8,-,N/A,,Clear,320,2013-03-15 18:15:00
1:35 PM,58.5,46.0,63,29.76,10.0,NW,4.6,-,N/A,,Clear,310,2013-03-15 18:35:00
1:55 PM,58.8,46.0,63,29.75,10.0,NW,5.8,-,N/A,,Clear,320,2013-03-15 18:55:00
2:15 PM,58.5,45.9,63,29.74,10.0,NW,5.8,-,N/A,,Clear,310,2013-03-15 19:15:00
2:35 PM,58.5,46.0,63,29.73,10.0,North,3.5,-,N/A,,Clear,350,2013-03-15 19:35:00
2:55 PM,59.4,46.9,63,29.73,10.0,North,5.8,-,N/A,,Clear,360,2013-03-15 19:55:00
3:15 PM,59.2,47.5,65,29.72,10.0,North,5.8,-,N/A,,Clear,360,2013-03-15 20:15:00
3:35 PM,59.2,47.5,65,29.72,10.0,NNE,3.5,-,N/A,,Clear,20,2013-03-15 20:35:00
3:55 PM,59.0,48.2,67,29.72,10.0,NW,5.8,-,N/A,,Clear,320,2013-03-15 20:55:00
4:15 PM,59.5,48.4,67,29.72,10.0,NNW,4.6,-,N/A,,Clear,330,2013-03-15 21:15:00
4:35 PM,60.1,47.8,64,29.73,10.0,North,6.9,-,N/A,,Clear,350,2013-03-15 21:35:00
4:55 PM,58.3,47.5,67,29.73,10.0,North,6.9,-,N/A,,Clear,360,2013-03-15 21:55:00
5:15 PM,57.4,46.9,68,29.72,10.0,North,6.9,-,N/A,,Clear,350,2013-03-15 22:15:00
5:35 PM,55.9,46.4,70,29.72,10.0,NNW,9.2,-,N/A,,Clear,330,2013-03-15 22:35:00
5:55 PM,55.0,45.5,70,29.72,10.0,North,4.6,-,N/A,,Clear,360,2013-03-15 22:55:00
6:15 PM,55.0,45.5,70,29.72,10.0,NW,5.8,-,N/A,,Clear,320,2013-03-15 23:15:00
6:35 PM,54.0,45.5,73,29.72,10.0,NW,8.1,-,N/A,,Clear,320,2013-03-15 23:35:00
6:55 PM,52.9,45.5,76,29.73,10.0,NNW,6.9,-,N/A,,Clear,330,2013-03-15 23:55:00
7:15 PM,50.4,44.6,81,29.73,10.0,NNW,5.8,-,N/A,,Clear,330,2013-03-16 00:15:00
7:35 PM,49.1,43.5,81,29.73,10.0,NNW,5.8,-,N/A,,Clear,340,2013-03-16 00:35:00
7:55 PM,47.7,43.2,84,29.74,10.0,NNW,6.9,-,N/A,,Clear,340,2013-03-16 00:55:00
8:15 PM,46.9,43.0,86,29.76,10.0,North,8.1,-,N/A,,Clear,350,2013-03-16 01:15:00
8:35 PM,45.5,41.9,87,29.78,10.0,NNW,6.9,-,N/A,,Clear,330,2013-03-16 01:35:00
8:55 PM,44.2,41.5,90,29.78,10.0,North,5.8,-,N/A,,Clear,350,2013-03-16 01:55:00
9:15 PM,43.7,41.2,91,29.79,10.0,North,6.9,-,N/A,,Clear,360,2013-03-16 02:15:00
9:35 PM,43.0,40.3,90,29.80,10.0,North,6.9,-,N/A,,Clear,350,2013-03-16 02:35:00
9:55 PM,42.6,40.6,93,29.81,10.0,North,8.1,-,N/A,,Clear,350,2013-03-16 02:55:00
10:15 PM,41.9,40.5,95,29.81,7.0,North,9.2,-,N/A,,Clear,350,2013-03-16 03:15:00
10:35 PM,41.2,40.5,97,29.82,7.0,North,9.2,-,N/A,,Clear,350,2013-03-16 03:35:00
10:55 PM,40.6,40.1,98,29.84,7.0,NNW,9.2,-,N/A,,Clear,340,2013-03-16 03:55:00
11:15 PM,40.3,40.1,99,29.85,7.0,NNW,5.8,-,N/A,,Clear,340,2013-03-16 04:15:00
11:35 PM,40.1,40.1,100,29.84,7.0,North,5.8,16.1,N/A,,Mostly Cloudy,350,2013-03-16 04:35:00
11:55 PM,40.1,40.1,100,29.84,5.0,North,5.8,-,N/A,,Overcast,350,2013-03-16 04:55:00